sat.trackr.live / text

‹ back to catalog

STARLINK-2523

NORAD 48306 · 2021-036AG

PAYLOAD ACTIVE UNKNOWN

§ Identity

Operator
Country
US
Launch date
2021-04-29
Launch site
AFETR
Launch vehicle
Mass (kg)
RCS (m²)

Purposes: comms

External: N2YO · Heavens-Above · Gunter

§ Orbital elements

Epoch: 2026-09-19T16:24:44.499168Z

Period
94.01 min
Inclination
53.1587°
Eccentricity
0.0001779
Mean motion
15.31699862 rev/d
Perigee alt
469.5 km
Apogee alt
472.0 km
Semi-major
6,848.9 km
B*
-4.5621e-5
RAAN
276.2114°
Arg perigee
57.4675°
Mean anomaly
302.6498°
Rev number
29,778

§ Raw data

STARLINK-25231 48306U 21036AG  26262.68384837 -.00001781  00000+0 -45621-4 0  99982 48306  53.1587 276.2114 0001779  57.4675 302.6498 15.31699862297788

JSON: /api/v1/satellites/48306 · /tle

For live sub-satellite position, see the globe view (requires WebGL).

§ Visibility from observer

Set your observer location to see the next 7 days of passes ≥ 10°. The values pass through the URL so the page stays shareable.

No JS? Fill the form by hand. The geolocation button needs JavaScript.